TimeEDT,TemperatureF,Dew PointF,Humidity,Sea Level PressureIn,VisibilityMPH,Wind Direction,Wind SpeedMPH,Gust SpeedMPH,PrecipitationIn,Events,Conditions,WindDirDegrees,DateUTC
12:15 AM,75.2,75.2,100,30.07,6.0,Calm,Calm,-,N/A,,Clear,0,2013-09-06 04:15:00
12:35 AM,73.4,73.4,100,30.07,5.0,Calm,Calm,-,N/A,,Clear,0,2013-09-06 04:35:00
12:55 AM,73.4,73.4,100,30.07,5.0,Calm,Calm,-,N/A,,Clear,0,2013-09-06 04:55:00
1:15 AM,73.4,73.4,100,30.07,7.0,Calm,Calm,-,N/A,,Clear,0,2013-09-06 05:15:00
1:35 AM,73.4,73.4,100,30.07,5.0,Calm,Calm,-,N/A,,Partly Cloudy,0,2013-09-06 05:35:00
1:55 AM,73.4,73.4,100,30.07,6.0,Calm,Calm,-,N/A,,Partly Cloudy,0,2013-09-06 05:55:00
2:15 AM,73.4,73.4,100,30.06,6.0,Calm,Calm,-,N/A,,Mostly Cloudy,0,2013-09-06 06:15:00
2:35 AM,73.4,73.4,100,30.06,7.0,Calm,Calm,-,N/A,,Mostly Cloudy,0,2013-09-06 06:35:00
2:55 AM,73.4,73.4,100,30.05,5.0,Calm,Calm,-,N/A,,Partly Cloudy,0,2013-09-06 06:55:00
3:15 AM,73.4,73.4,100,30.05,5.0,Calm,Calm,-,N/A,,Clear,0,2013-09-06 07:15:00
3:35 AM,73.4,73.4,100,30.04,5.0,Calm,Calm,-,N/A,,Clear,0,2013-09-06 07:35:00
3:55 AM,73.4,73.4,100,30.04,5.0,Calm,Calm,-,N/A,,Clear,0,2013-09-06 07:55:00
4:15 AM,73.4,73.4,100,30.03,5.0,Calm,Calm,-,N/A,,Clear,0,2013-09-06 08:15:00
4:35 AM,73.4,73.4,100,30.03,4.0,Calm,Calm,-,N/A,,Clear,0,2013-09-06 08:35:00
4:55 AM,73.4,73.4,100,30.03,3.0,Calm,Calm,-,N/A,,Clear,0,2013-09-06 08:55:00
5:15 AM,71.6,71.6,100,30.04,3.0,Calm,Calm,-,N/A,,Clear,0,2013-09-06 09:15:00
5:35 AM,71.6,71.6,100,30.04,2.5,Calm,Calm,-,N/A,,Clear,0,2013-09-06 09:35:00
5:55 AM,71.6,71.6,100,30.04,3.0,Calm,Calm,-,N/A,,Clear,0,2013-09-06 09:55:00
6:15 AM,71.6,71.6,100,30.05,3.0,Calm,Calm,-,N/A,,Clear,0,2013-09-06 10:15:00
6:35 AM,71.6,71.6,100,30.05,3.0,Calm,Calm,-,N/A,,Clear,0,2013-09-06 10:35:00
6:50 AM,71.6,71.6,100,30.05,7.0,Calm,Calm,-,N/A,,Clear,0,2013-09-06 10:50:00
7:50 AM,71.6,71.6,100,30.06,10.0,Calm,Calm,-,N/A,,Clear,0,2013-09-06 11:50:00
8:50 AM,77.0,77.0,100,30.07,10.0,Calm,Calm,-,N/A,,Clear,0,2013-09-06 12:50:00
9:50 AM,80.6,77.0,89,30.08,10.0,Calm,Calm,-,N/A,,Clear,0,2013-09-06 13:50:00
10:50 AM,82.4,77.0,84,30.07,10.0,ENE,4.6,-,N/A,,Clear,60,2013-09-06 14:50:00
11:50 AM,86.0,77.0,74,30.07,10.0,ENE,4.6,-,N/A,,Mostly Cloudy,70,2013-09-06 15:50:00
12:50 PM,87.8,75.2,66,30.06,10.0,ESE,4.6,-,N/A,,Mostly Cloudy,120,2013-09-06 16:50:00
1:50 PM,91.4,75.2,59,30.03,10.0,NE,4.6,-,N/A,,Mostly Cloudy,50,2013-09-06 17:50:00
2:21 PM,82.4,75.2,79,30.04,2.0,North,21.9,29.9,N/A,Rain-Thunderstorm,Thunderstorms and Rain,360,2013-09-06 18:21:00
2:50 PM,71.6,71.6,100,30.05,1.0,North,21.9,29.9,N/A,Rain-Thunderstorm,Thunderstorms and Rain,360,2013-09-06 18:50:00
3:50 PM,71.6,71.6,100,30.01,7.0,Calm,Calm,-,N/A,,Overcast,0,2013-09-06 19:50:00
4:50 PM,71.6,71.6,100,30.00,5.0,Calm,Calm,-,N/A,,Overcast,0,2013-09-06 20:50:00
5:50 PM,73.4,73.4,100,30.03,6.0,Variable,3.5,-,N/A,,Overcast,0,2013-09-06 21:50:00
6:50 PM,73.4,73.4,100,30.04,4.0,Calm,Calm,-,N/A,,Overcast,0,2013-09-06 22:50:00
7:50 PM,73.4,73.4,100,30.04,5.0,Calm,Calm,-,N/A,,Overcast,0,2013-09-06 23:50:00
8:15 PM,73.4,73.4,100,30.04,7.0,Calm,Calm,-,N/A,,Clear,0,2013-09-07 00:15:00
8:35 PM,71.6,71.6,100,30.04,7.0,Calm,Calm,-,N/A,,Clear,0,2013-09-07 00:35:00
8:55 PM,71.6,71.6,100,30.03,7.0,Calm,Calm,-,N/A,,Clear,0,2013-09-07 00:55:00
9:15 PM,71.6,71.6,100,30.02,5.0,Calm,Calm,-,N/A,,Clear,0,2013-09-07 01:15:00
9:35 PM,71.6,71.6,100,30.03,6.0,Calm,Calm,-,N/A,,Clear,0,2013-09-07 01:35:00
9:55 PM,71.6,71.6,100,30.04,8.0,Calm,Calm,-,N/A,,Clear,0,2013-09-07 01:55:00
10:15 PM,71.6,71.6,100,30.04,10.0,Calm,Calm,-,N/A,,Clear,0,2013-09-07 02:15:00
10:35 PM,71.6,71.6,100,30.04,9.0,Calm,Calm,-,N/A,,Clear,0,2013-09-07 02:35:00
10:55 PM,71.6,71.6,100,30.04,10.0,Calm,Calm,-,N/A,,Clear,0,2013-09-07 02:55:00
11:15 PM,71.6,71.6,100,30.04,9.0,NW,3.5,-,N/A,,Clear,310,2013-09-07 03:15:00
11:35 PM,71.6,71.6,100,30.04,8.0,WNW,3.5,-,N/A,,Clear,300,2013-09-07 03:35:00
11:55 PM,71.6,71.6,100,30.04,10.0,WNW,3.5,-,N/A,,Clear,300,2013-09-07 03:55:00